SKYSAT-C5 (41772 NORAD) Tracking and Keplerian Element Data

This shows tracking and keplerian element data for the satellite.

Feedback or suggestion? Click here.




ElementValue
Catalog41772
NameSKYSAT-C5
Epoch Orbit12475
Epoch Day349.14681229
Epoch Year2018
RAAN57.2063
Inclination97.423
Eccentricity0.0001916
Argument of Perigee53.7645
Mean Anonmoly0.961
Mean Motion15.23270204
Decay Rate6.11E-06
L11 41772U 16058C 18349.14681229 .00000611 00000-0 28733-4 0 9994
L22 41772 97.4230 57.2063 0001916 53.7645 0.9610 15.23270204124759

Live tracking and technical data element details for SKYSAT-C5 (NORAD 41772). SKYSAT-C5 can be tracked NOW for your location showing map with azimuth and elevation plus other details from your city location.

Track the satellite on the map from your city or location and see movement details for azimuth, elevation, latitude, longitude, range, height, and movement on the map or in text.







IsCatalogInMostPopularTable: catalog: 41772, numindb: 119
Update: records affected: 1



GetName: 41772 SKYSAT-C5

Hit Count: updated at: Sun, 16 Dec 2018 03:13:29 GMT